Home   Weather   Kwajalein   Past weeks

Flag for Marshall Islands Past Weather in Kwajalein, Marshall Islands — Yesterday and Last 2 Weeks

Now
86 °F

Sunny.


Feels Like: 92 °F
Forecast: 81 / 88 °F
Wind: 20 mph from East

Location: Kwajalein / Bucholz

Current Time: Apr 30, 2017 at 9:53:20 am

Latest Report: Apr 30, 2017 at 9:20 am


Visibility: 10 mi

Pressure: 29.91 "Hg

Humidity: 64%

Dew Point: 72 °F

Location of KwajaleinLocation

Past Weather in Kwajalein — Graph

°F

Kwajalein Temperature Yesterday

Maximum temperature yesterday: 88 °F (at 1:00 pm)
Minimum temperature yesterday: 82 °F (at 2:20 am)
Average temperature yesterday: 84 °F

High & Low Weather Summary for the Past Weeks

 TemperatureHumidityPressure
High89 °F (Apr 28, 2:00 pm)93% (Apr 19, 10:00 pm)29.94 "Hg (Apr 19, 10:00 pm)
Low77 °F (Apr 19, 10:00 pm)57% (Apr 28, 2:00 pm)29.77 "Hg (Apr 16, 3:40 pm)
Average84 °F72%29.85 "Hg
* Reported Apr 15 8:00 am — Apr 30 8:40 am, Kwajalein, Weather by CustomWeather, © 2017

Note: Actual official high and low records may vary slightly from our data, if they occured in-between our weather recording intervals... More about our weather records

Advertising

Kwajalein Weather History for the Previous 24 Hours

Scroll right to see more
 ConditionsComfort  
Time TempWeatherWind HumidityBarometerVisibility
8:40 am
Sun, Apr 30
84 °FSunny.22 mph66%29.90 "Hg10 mi
8:20 am84 °FSunny.21 mph67%29.89 "Hg10 mi
7:40 am83 °FScattered clouds.22 mph70%29.88 "Hg10 mi
7:20 am83 °FScattered clouds.23 mph71%29.87 "Hg10 mi
7:00 am82 °FScattered clouds.22 mph72%29.86 "Hg10 mi
6:20 am82 °FPassing clouds.22 mph72%29.85 "Hg10 mi
6:00 am82 °FPassing clouds.25 mph72%29.85 "Hg10 mi
5:40 am82 °FPassing clouds.23 mph72%29.85 "Hg10 mi
5:20 am82 °FPassing clouds.22 mph72%29.84 "Hg10 mi
5:00 am82 °FPassing clouds.23 mph73%29.83 "Hg10 mi
4:20 am82 °FPassing clouds.23 mph73%29.83 "Hg10 mi
4:00 am82 °FPassing clouds.20 mph73%29.83 "Hg10 mi
3:20 am83 °FPassing clouds.21 mph73%29.84 "Hg10 mi
3:00 am83 °FPassing clouds.24 mph72%29.84 "Hg10 mi
2:40 am83 °FPartly cloudy.21 mph73%29.84 "Hg10 mi
2:20 am83 °FPartly cloudy.21 mph72%29.85 "Hg10 mi
2:00 am83 °FPartly cloudy.20 mph73%29.85 "Hg10 mi
1:20 am83 °FPartly cloudy.20 mph74%29.86 "Hg10 mi
12:40 am83 °FPartly cloudy.24 mph73%29.87 "Hg10 mi
12:20 am83 °FPartly cloudy.20 mph73%29.88 "Hg10 mi
12:00 am83 °FPassing clouds.20 mph72%29.89 "Hg10 mi
11:20 pm
Sat, Apr 29
83 °FPassing clouds.20 mph71%29.89 "Hg10 mi
11:00 pm83 °FPassing clouds.18 mph71%29.89 "Hg10 mi
10:40 pm83 °FPassing clouds.23 mph70%29.89 "Hg10 mi
10:20 pm83 °FPassing clouds.21 mph71%29.88 "Hg10 mi
10:00 pm83 °FPassing clouds.22 mph70%29.88 "Hg10 mi
9:40 pm83 °FPassing clouds.22 mph71%29.87 "Hg10 mi
9:20 pm83 °FPassing clouds.22 mph72%29.87 "Hg10 mi
9:00 pm83 °FPartly cloudy.21 mph72%29.87 "Hg10 mi
8:40 pm83 °FPassing clouds.21 mph74%29.86 "Hg10 mi
8:20 pm83 °FPassing clouds.22 mph74%29.86 "Hg10 mi
7:40 pm83 °FPassing clouds.22 mph73%29.84 "Hg10 mi
7:20 pm84 °FPartly cloudy.22 mph72%29.84 "Hg10 mi
7:00 pm84 °FPartly cloudy.22 mph71%29.83 "Hg10 mi
6:20 pm85 °FScattered clouds.17 mph69%29.81 "Hg10 mi
6:00 pm86 °FScattered clouds.20 mph68%29.81 "Hg10 mi
5:20 pm86 °FScattered clouds.17 mph67%29.81 "Hg10 mi
5:00 pm86 °FScattered clouds.20 mph66%29.80 "Hg10 mi
4:40 pm86 °FScattered clouds.21 mph66%29.80 "Hg10 mi
4:20 pm86 °FScattered clouds.18 mph66%29.80 "Hg10 mi
4:00 pm87 °FBroken clouds.20 mph66%29.80 "Hg10 mi
3:40 pm87 °FBroken clouds.22 mph65%29.79 "Hg10 mi
3:20 pm87 °FBroken clouds.23 mph64%29.80 "Hg7 mi
3:00 pm88 °FScattered clouds.20 mph63%29.80 "Hg10 mi
2:40 pm88 °FScattered clouds.22 mph64%29.81 "Hg10 mi
2:20 pm88 °FScattered clouds.17 mph63%29.81 "Hg10 mi
2:00 pm88 °FScattered clouds.22 mph64%29.83 "Hg10 mi
1:20 pm88 °FCloudy.17 mph64%29.85 "Hg10 mi
1:00 pm88 °FBroken clouds.17 mph64%29.86 "Hg10 mi
12:20 pm88 °FScattered clouds.20 mph64%29.87 "Hg10 mi
12:00 pm88 °FScattered clouds.20 mph63%29.87 "Hg10 mi
11:40 am87 °FScattered clouds.17 mph64%29.88 "Hg10 mi
11:20 am87 °FBroken clouds.17 mph63%29.88 "Hg10 mi
11:00 am87 °FPartly sunny.20 mph65%29.89 "Hg10 mi
10:40 am86 °FScattered clouds.16 mph65%29.88 "Hg10 mi
10:20 am86 °FScattered clouds.20 mph67%29.89 "Hg10 mi
10:00 am85 °FScattered clouds.21 mph66%29.90 "Hg10 mi
9:40 am85 °FMostly cloudy.20 mph67%29.90 "Hg10 mi
9:20 am85 °FBroken clouds.15 mph66%29.90 "Hg10 mi
9:00 am85 °FSunny.18 mph66%29.89 "Hg10 mi
Weather by CustomWeather, © 2017

See weather overviewHow to use our weather pages